[[{"header":{"parameterUnit":"m.s-1","parameterCategory":1,"la1":30.2991,"la2":30.254,"lo1":-89.0895,"lo2":-89.0444,"dy":0.0017,"dx":0.0017,"nx":28,"ny":28,"refTime":"2024-04-01T03:00:00:Z","depth":0,"parameterNumber":2,"parameterNumberName":"U-component_of_WINDS"},"data":[0,0,0,0,0,0,0,0,0,0,0,0,0,0,0,0,0,0,0,0,0,0,0,0,0,0,0,0,0,0,0,0,0,0,0,0,0,0,0,0,0,0,0,0,0,0,0,0,0,0,0,0,0,0,0,0,0,0,1.9193,1.9192,0,1.9164,1.9164,1.9163,1.9102,1.9101,1.91,1.9099,1.9071,1.9071,1.9071,0,0,0,0,0,0,0,0,0,0,0,0,0,1.9196,1.9196,1.9193,1.9192,1.9192,1.9164,1.9164,1.9163,1.9102,1.9101,1.9099,1.9098,1.9071,1.9071,1.9072,0,0,0,0,0,0,0,0,0,0,0,0,0,1.9184,1.9196,1.9193,1.9158,1.9155,1.9164,1.9164,1.9163,1.9103,1.9101,1.9099,1.9097,1.907,1.9071,1.9072,1.9112,0,0,1.9073,1.9074,0,0,0,0,0,0,0,0,1.9185,1.9184,1.9164,1.9161,1.9157,1.9135,1.9154,1.9146,1.9103,1.9123,1.9099,1.9096,1.9094,1.9092,1.9091,1.9111,1.911,1.9074,1.9074,1.9074,1.9074,0,0,0,0,0,0,0,1.9185,1.9185,1.9181,1.9163,1.9159,1.9145,1.9141,1.9153,1.9119,1.9121,1.9116,1.9114,1.9091,1.909,1.909,1.911,1.9074,1.9074,1.9074,1.9075,1.9161,1.9163,0,0,0,0,0,0,1.9191,1.9186,1.9182,1.918,1.9166,1.9146,1.9142,1.9144,1.9119,1.9113,1.9115,1.9111,1.909,1.9089,1.9089,1.9134,1.9074,1.9075,1.9075,1.916,1.9162,1.9164,0,0,0,0,0,0,1.9191,1.9191,1.9183,1.9182,1.918,1.9148,1.9151,1.9144,1.9143,1.9114,1.9108,1.912,1.9089,1.9088,1.9107,1.9132,1.9075,1.9076,1.9157,1.916,1.9163,1.9227,0,0,0,0,0,0,1.9192,1.9192,1.9207,1.9183,1.918,1.9202,1.9152,1.9145,1.9144,1.9138,1.9118,1.9112,1.9087,1.9106,1.9107,1.9132,1.9076,1.9155,1.9159,1.9162,1.9222,1.9231,1.9239,0,0,0,0,0,1.9192,1.9226,1.9208,1.9208,1.9198,1.9203,1.9202,1.9172,1.9147,1.9161,1.9143,1.9113,1.913,1.9109,1.911,1.9135,1.9153,1.9158,1.9162,1.9218,1.9229,1.9239,0,0,0,0,0,0,1.9255,1.9222,1.9202,1.9229,1.9219,1.9193,1.9211,1.9185,1.9183,1.9177,1.9141,1.9137,1.9161,1.915,1.9127,1.9173,1.9137,1.9141,1.9179,1.919,1.9198,1.92,1.9077,0,0,0,0,0,1.9272,1.9279,1.925,1.9277,1.9273,1.9243,1.9244,1.9222,1.9211,1.9207,1.9189,1.918,1.9183,1.9186,1.9187,1.922,1.9215,1.9238,1.9247,1.9254,1.9258,1.9275,1.9285,1.9178,1.9178,1.9178,0,0,1.9307,1.929,1.9297,1.9289,1.9279,1.9287,1.924,1.9251,1.9256,1.9208,1.9225,1.9212,1.9199,1.9226,1.9236,1.9217,1.9287,1.926,1.9266,1.9266,1.928,1.9291,1.93,1.9181,1.9181,1.918,0,0,1.9375,1.9363,1.9384,1.9374,1.936,1.9339,1.9345,1.9322,1.9312,1.9328,1.9292,1.9298,1.9304,1.9296,1.9293,1.9359,1.9331,1.936,1.9405,1.9421,1.943,1.9437,1.946,1.9468,1.9365,1.9365,1.9365,0,1.942,1.9431,1.9398,1.941,1.9408,1.9365,1.9385,1.9378,1.9365,1.9365,1.9343,1.935,1.9338,1.9362,1.9378,1.9377,1.9381,1.9362,1.9431,1.9438,1.9444,1.9466,1.9474,1.9368,1.9368,1.9368,1.9367,0,1.9487,1.9495,1.9514,1.9501,1.9501,1.9518,1.9488,1.9492,1.947,1.9452,1.9469,1.9453,1.945,1.9455,1.9433,1.9475,1.9464,1.9438,1.94,1.9459,1.9478,1.9486,1.9374,1.9372,1.9371,1.937,0,0,1.9593,1.9562,1.957,1.9563,1.9544,1.955,1.9565,1.9561,1.9565,1.9558,1.9569,1.9576,1.9551,1.9547,1.9525,1.954,1.9592,1.9511,1.951,1.9526,1.9636,1.9656,1.9666,1.9573,1.9575,1.9576,1.9637,0,1.9656,1.968,1.965,1.968,1.9687,1.9646,1.9659,1.9649,1.9633,1.9636,1.9618,1.9623,1.9591,1.9588,1.9601,1.9583,1.9613,1.9578,1.9584,1.9584,1.9588,1.9676,1.9697,1.9755,1.9645,1.9646,1.9647,0,1.9733,1.9728,1.9759,1.9737,1.9739,1.9751,1.9745,1.9749,1.9737,1.9724,1.9721,1.9693,1.9707,1.9671,1.9689,1.9666,1.9667,1.9658,1.966,1.9658,1.9619,1.9677,1.9773,1.9782,1.9659,1.9658,1.9657,0,1.9807,1.9808,1.9826,1.9822,1.9798,1.9807,1.9798,1.9783,1.9783,1.9779,1.9778,1.9776,1.9774,1.9773,1.9746,1.9722,1.9767,1.9729,1.9757,1.9758,1.9768,1.9767,1.9865,1.977,1.977,1.9769,1.9769,0,1.9879,1.9899,1.9859,1.987,1.9891,1.9858,1.988,1.9866,1.9854,1.9862,1.9827,1.9835,1.9799,1.9804,1.9783,1.9801,1.9801,1.9791,1.9785,1.9794,1.9795,1.9793,1.9788,1.9772,1.9771,1.9771,1.977,0,1.9965,1.9939,1.9956,1.9931,1.9925,1.9942,1.9921,1.993,1.9912,1.9923,1.9923,1.9895,1.9898,1.9871,1.987,1.9856,1.9884,1.9871,1.9888,1.9884,1.9913,1.991,2.0012,2.0024,1.9922,1.9923,1.9924,0,2.0013,2.0027,2.0004,2.0006,1.9998,2.0003,2.0002,1.9971,1.9972,1.9959,1.997,1.997,1.9969,1.9977,1.9956,1.9955,1.9942,1.9977,1.9941,1.9949,1.9941,1.994,1.9942,1.9985,1.9986,1.9987,1.9988,0,2.01,2.0087,2.0087,2.0083,2.0083,2.0079,2.0072,2.0076,2.0041,2.0044,2.0047,2.0046,2.0045,2.0046,2.0041,2.0031,2.0004,2.0,2.0006,2.0014,2.0023,2.0018,1.9908,1.9997,1.9996,1.9996,1.9995,1.9995,2.0168,2.0178,2.0164,2.0165,2.0157,2.0151,2.0159,2.0141,2.0143,2.0139,2.012,2.0127,2.0114,2.0104,2.0097,2.0102,2.0084,2.0093,2.0096,2.0098,2.0103,2.0023,2.0101,2.01,2.01,2.01,2.01,0,2.0253,2.0241,2.0243,2.0234,2.0236,2.021,2.0201,2.0204,2.021,2.02,2.02,2.0203,2.0204,2.0184,2.0182,2.019,2.0177,2.019,2.0189,2.0187,2.0119,2.0113,2.02,2.02,2.02,2.02,2.02,2.02,2.0297,2.0313,2.0298,2.031,2.0299,2.0304,2.0301,2.0296,2.0288,2.0293,2.0294,2.028,2.0266,2.0263,2.0263,2.0257,2.0258,2.0275,2.0265,2.0202,2.0192,2.0182,2.0177,2.0276,2.0276,2.0332,2.0333,2.0333]},{"header":{"parameterUnit":"m.s-1","parameterCategory":1,"la1":30.2991,"la2":30.254,"lo1":-89.0895,"lo2":-89.0444,"dy":0.0017,"dx":0.0017,"nx":28,"ny":28,"refTime":"2024-04-01T03:00:00:Z","depth":0,"parameterNumber":3,"parameterNumberName":"V-component_of_WINDS"},"data":[0,0,0,0,0,0,0,0,0,0,0,0,0,0,0,0,0,0,0,0,0,0,0,0,0,0,0,0,0,0,0,0,0,0,0,0,0,0,0,0,0,0,0,0,0,0,0,0,0,0,0,0,0,0,0,0,0,0,6.2439,6.2441,0,6.2634,6.2636,6.2638,6.2647,6.2644,6.2642,6.264,6.2835,6.2842,6.2849,0,0,0,0,0,0,0,0,0,0,0,0,0,6.207,6.2077,6.2439,6.2441,6.2444,6.2633,6.2636,6.2639,6.2647,6.2644,6.2641,6.2639,6.2832,6.2841,6.285,0,0,0,0,0,0,0,0,0,0,0,0,0,6.2244,6.2079,6.2438,6.2471,6.2476,6.2633,6.2636,6.2639,6.2648,6.2644,6.2641,6.2637,6.283,6.284,6.2851,6.2988,0,0,6.2885,6.2889,0,0,0,0,0,0,0,0,6.2234,6.2258,6.2464,6.2469,6.2475,6.2612,6.2578,6.2756,6.2648,6.2582,6.264,6.2636,6.2763,6.278,6.2823,6.2997,6.3005,6.2886,6.2892,6.2897,6.29,0,0,0,0,0,0,0,6.2222,6.2249,6.2516,6.2467,6.2473,6.2474,6.2495,6.2611,6.2689,6.2588,6.2589,6.2612,6.2766,6.2813,6.2828,6.3008,6.2885,6.2895,6.2902,6.2906,6.3304,6.3307,0,0,0,0,0,0,6.2204,6.2239,6.2509,6.2522,6.2344,6.2484,6.2507,6.2572,6.2688,6.2703,6.2615,6.2612,6.2796,6.2815,6.2835,6.3003,6.2897,6.2907,6.2914,6.33,6.3304,6.3309,0,0,0,0,0,0,6.2196,6.2228,6.2502,6.2381,6.2416,6.2494,6.2566,6.2577,6.2625,6.2709,6.2722,6.2649,6.2794,6.282,6.295,6.301,6.2912,6.2922,6.3295,6.3301,6.3307,6.334,0,0,0,0,0,0,6.2186,6.2226,6.2279,6.2382,6.2422,6.2615,6.257,6.2583,6.2644,6.2642,6.2744,6.2758,6.2793,6.2934,6.2961,6.3023,6.2931,6.329,6.3298,6.3305,6.3334,6.3347,6.3357,0,0,0,0,0,6.2173,6.228,6.2282,6.2314,6.2491,6.2618,6.2641,6.268,6.2649,6.2703,6.2757,6.2755,6.2999,6.2947,6.2978,6.3044,6.3286,6.3295,6.3304,6.3329,6.3344,6.3357,0,0,0,0,0,0,6.218,6.2294,6.2297,6.2441,6.252,6.2619,6.2689,6.2695,6.2784,6.2778,6.2822,6.2845,6.2974,6.3022,6.2962,6.3183,6.3139,6.3154,6.3147,6.3162,6.3174,6.316,6.294,0,0,0,0,0,6.2199,6.2294,6.2387,6.2505,6.2545,6.261,6.2667,6.2691,6.2774,6.2807,6.287,6.295,6.3045,6.3106,6.3198,6.3341,6.3363,6.3402,6.3413,6.3423,6.3436,6.3515,6.3534,6.3338,6.3338,6.3338,0,0,6.2238,6.2311,6.2369,6.2509,6.2573,6.2669,6.2638,6.2741,6.2813,6.2822,6.295,6.2999,6.3091,6.3228,6.3292,6.3272,6.3495,6.3434,6.3441,6.3449,6.3526,6.3545,6.3561,6.3344,6.3343,6.3342,0,0,6.2358,6.2424,6.253,6.2595,6.2693,6.2736,6.2761,6.286,6.2894,6.3023,6.3032,6.3117,6.3279,6.3344,6.3399,6.3545,6.3546,6.3573,6.3634,6.3711,6.3726,6.374,6.3793,6.3811,6.3586,6.3586,6.3586,0,6.2394,6.2541,6.2583,6.2687,6.2748,6.2762,6.2869,6.293,6.3052,6.3093,6.307,6.3274,6.3337,6.349,6.3526,6.3569,6.3599,6.3562,6.3721,6.3735,6.3749,6.38,6.3819,6.3588,6.3588,6.3588,6.3587,0,6.2581,6.2683,6.2756,6.2876,6.2945,6.305,6.3106,6.3171,6.3189,6.3234,6.3365,6.3441,6.3549,6.3587,6.3604,6.3743,6.3728,6.3712,6.3669,6.377,6.3818,6.3838,6.3592,6.3591,6.359,6.359,0,0,6.2711,6.2854,6.288,6.2935,6.3044,6.3123,6.3228,6.3336,6.3391,6.3474,6.3563,6.3701,6.3687,6.3749,6.3774,6.3841,6.3953,6.3818,6.382,6.3841,6.4111,6.4123,6.4145,6.3955,6.3958,6.3961,6.4104,0,6.2844,6.3034,6.3074,6.3238,6.3332,6.3347,6.3439,6.3515,6.356,6.3646,6.3694,6.3792,6.3766,6.3804,6.3871,6.3925,6.4008,6.3915,6.4037,6.4041,6.4015,6.417,6.4183,6.4314,6.4123,6.4126,6.4128,0,6.3025,6.3115,6.3288,6.3386,6.3428,6.351,6.3611,6.3693,6.378,6.3808,6.3877,6.3895,6.4004,6.3955,6.4106,6.4042,6.4094,6.4128,6.4134,6.4147,6.4091,6.4188,6.4356,6.4376,6.4159,6.4156,6.4154,0,6.3104,6.3268,6.3394,6.344,6.3557,6.3614,6.3665,6.3749,6.3811,6.3899,6.394,6.4039,6.4093,6.4169,6.4212,6.4173,6.436,6.4314,6.4386,6.4385,6.4425,6.4422,6.4604,6.4457,6.4457,6.4456,6.4456,0,6.3248,6.3354,6.3431,6.3508,6.3626,6.3671,6.3787,6.3837,6.3912,6.3998,6.4016,6.4096,6.4149,6.4236,6.4271,6.4391,6.4414,6.444,6.4448,6.4439,6.4436,6.4474,6.4466,6.4462,6.4461,6.446,6.4459,0,6.3357,6.3412,6.355,6.365,6.3678,6.3761,6.3846,6.3921,6.3966,6.4075,6.4103,6.4173,6.4277,6.4329,6.4457,6.448,6.4616,6.4618,6.4588,6.4591,6.466,6.4653,6.4874,6.4905,6.4736,6.4738,6.4739,0,6.3446,6.3528,6.3637,6.3697,6.375,6.3846,6.391,6.3958,6.4023,6.4129,6.4191,6.4296,6.4383,6.4548,6.461,6.4708,6.4713,6.4784,6.4728,6.4717,6.4715,6.471,6.4719,6.4794,6.4795,6.4797,6.4798,0,6.3598,6.3622,6.3714,6.3817,6.3893,6.3976,6.4057,6.4104,6.4164,6.4237,6.4345,6.4412,6.4545,6.4649,6.4752,6.4803,6.4811,6.4815,6.4837,6.4829,6.4808,6.4821,6.4616,6.481,6.4808,6.4808,6.4807,6.4806,6.37,6.3774,6.3863,6.3966,6.4032,6.4108,6.4184,6.4239,6.433,6.4443,6.4465,6.4579,6.4663,6.4803,6.4858,6.4947,6.4931,6.4962,6.4971,6.4978,6.4982,6.4793,6.4966,6.4965,6.4965,6.4965,6.4965,0,6.3854,6.3913,6.4007,6.4121,6.4201,6.4203,6.4293,6.436,6.4461,6.454,6.4625,6.4749,6.4851,6.4921,6.5023,6.5081,6.5087,6.5107,6.5103,6.5115,6.499,6.4961,6.51,6.51,6.51,6.51,6.51,6.51,6.3944,6.407,6.4104,6.4262,6.432,6.4433,6.4485,6.4554,6.4618,6.4756,6.4841,6.4887,6.4962,6.5071,6.5164,6.5182,6.5219,6.5239,6.5256,6.5138,6.5124,6.511,6.5084,6.5246,6.5246,6.5374,6.5376,6.5376]}]]